Regional Weather Roundup
Issued by NWS Kansas City/Pleasant Hill, MO

Home | Current Version | Previous Version | Graphics & Text | Print | Product List | Glossary Off
Versions: 1 2 3 4 5 6 7 8 9 10 11 12 13 14 15 16 17 18 19 20 21 22 23 24 25 26 27 28

000
ASUS43 KEAX 052310
RWREAX

WEATHER ROUNDUP FOR EASTERN KANSAS AND NORTHWEST MISSOURI
NATIONAL WEATHER SERVICE KANSAS CITY/PLEASANT HILL MO
500 PM CST MON DEC 05 2016

KSZ040-057-103>105-MOZ028-029-037-043-060000-
...KANSAS CITY METROPOLITAN AREA...

CITY           SKY/WX    TMP DP  RH WIND       PRES   REMARKS
K.C. INTL      PTCLDY    42  31  64 S8        29.74S
K.C. DOWNTOWN  CLEAR     49  34  56 VRB7      29.75R
LEES SUMMIT    CLEAR     46  32  58 SE10      29.76R
OLATHE - IXD   CLEAR     47  33  58 SE13      29.74S
OLATHE - OJC   CLEAR     45  32  60 S12       29.74S
LAWRENCE       CLEAR     44  35  70 SE7       29.74R

$$

MOZ001>008-011>017-020>025-030>033-038>040-044>046-053-054-060000-
...NORTHERN AND CENTRAL MISSOURI...

CITY           SKY/WX    TMP DP  RH WIND       PRES   REMARKS
ST. JOSEPH     CLEAR     45  34  65 S6        29.74S
MOSBY          CLEAR     48  32  53 SE6       29.76R
WARRENSBURG    CLEAR     43  32  65 SE7       29.77S
WHITEMAN AFB   PTCLDY    44  35  68 S7        29.76F
CLINTON        CLEAR     45  34  65 CALM      29.78S
SEDALIA        CLOUDY    42  34  73 E7        29.80F
WARSAW         NOT AVBL
CHILLICOTHE      N/A     46  37  71 SE7       29.79S
KIRKSVILLE     CLEAR     39  37  92 SE12      29.83S WCI  32

$$

MOZ041-047>049-056>058-063>065-088>090-097-060000-
...EASTERN AND SOUTHERN MISSOURI...

CITY           SKY/WX    TMP DP  RH WIND       PRES   REMARKS
ST. LOUIS INTL MOCLDY    42  34  73 E10       29.88F
SPIRIT OF STL  PTCLDY    41  36  82 E6        29.86F
COLUMBIA       PTCLDY    41  37  86 E9        29.81F
JEFFERSON CITY PTCLDY    44  36  73 E7        29.82F
ROLLA          PTCLDY    41  34  76 E7        29.79F
OSAGE BEACH    PTCLDY    44  34  67 E6        29.80F
SPRINGFIELD    PTCLDY    43  35  73 SE8       29.75F
BRANSON        MOCLDY    41  36  81 E9        29.76F
JOPLIN         CLEAR     44  38  79 SE7       29.74F
WEST PLAINS    CLOUDY    42  36  79 E6        29.82F

$$

IAZ060-094-KSZ022-034>040-054-083-096-NEZ052-066-093-060000-
...KANSAS...SOUTHEAST NEBRASKA AND IOWA...

CITY           SKY/WX    TMP DP  RH WIND       PRES   REMARKS
TOPEKA         CLEAR     47  35  63 SE12      29.71F
MANHATTAN      CLEAR     50  36  58 S8        29.68R
EMPORIA        CLEAR     45  37  73 SE8       29.69F
CHANUTE        CLEAR     45  38  76 S8        29.72F
WICHITA        PTCLDY    49  36  61 S13       29.65R
OMAHA          MOCLDY    48  36  63 S9        29.66R
LINCOLN        CLEAR     49  34  56 S8        29.66R
FALLS CITY     CLEAR     47  36  65 S9        29.69F
LAMONI         CLEAR     44  36  73 SE6       29.75S
DES MOINES     PTCLDY    44  35  70 S10       29.74F

$$





USA.gov is the U.S. government's official web portal to all federal, state and local government web resources and services.